Naples, Italy

9:21 AM CEST on April 27, 2017 (GMT +0200)
Capodichino Mil

Weather History for LIRN - January, 2013

Change the Weather History Date:

Monday, January 14, 2013

  Actual Average Record
Temperature  
Mean Temperature 54 °F -  
Max Temperature 59 °F 55 °F 62 °F (1997)
Min Temperature 48 °F 39 °F 30 °F (2003)
Degree Days  
Heating Degree Days 12    
Growing Degree Days 4 (Base 50)    
Moisture  
Dew Point 49 °F    
Average Humidity 79    
Maximum Humidity 88    
Minimum Humidity 67    
Precipitation  
Precipitation 0.00 in 0.13 in - ()
Sea Level Pressure  
Sea Level Pressure 29.87 in    
Wind  
Wind Speed 11 mph ()    
Max Wind Speed 18 mph    
Max Gust Speed 31 mph    
Visibility 6.0 miles    
Events Rain , Thunderstorm    
Averages and records for this station are not official NWS values.
T = Trace of Precipitation, MM = Missing Value Source: Averaged Metar Reports

Daily Weather History Graph

Daily Weather History Graph

Search for Another Location

Airport or City:

Trip Planner

Search our weather history database for the weather conditions in past years. The results will help you decide how hot, cold, wet, or windy it might be!

Date:

Astronomy

Jan. 14, 2013 Rise Set
Actual Time 7:25 AM CET 4:58 PM CET
Civil Twilight 6:55 AM CET 5:28 PM CET
Nautical Twilight 6:21 AM CET 6:02 PM CET
Astronomical Twilight 5:48 AM CET 6:35 PM CET
Moon 8:47 AM CET (1/14) 8:26 PM CET (1/14)
Length of Visible Light 10h 33m
Length of Day
9h 33m
Waxing Crescent, 9% of the Moon is Illuminated
Jan 14
Waxing Crescent
Jan 19
First Quarter
Jan 27
Full
Feb 3
Last Quarter
Feb 10
New

Hourly Weather History & Observations

Time (CET) Temp. Dew Point Humidity Pressure Visibility Wind Dir Wind Speed Gust Speed Precip Events Conditions
12:20 AM 57.2 °F 51.8 °F 82% 29.86 in 6.2 mi South 15.0 mph - N/A   Scattered Clouds
12:50 AM 57.2 °F 50.0 °F 77% 29.86 in 6.2 mi South 12.7 mph - N/A   Scattered Clouds
1:20 AM 57.2 °F 51.8 °F 82% 29.86 in 6.2 mi South 15.0 mph 28.8 mph N/A   Scattered Clouds
1:50 AM 59.0 °F 48.2 °F 67% 29.86 in 6.2 mi South 15.0 mph - N/A   Scattered Clouds
2:20 AM 59.0 °F 50.0 °F 72% 29.86 in 6.2 mi South 13.8 mph - N/A   Scattered Clouds
2:50 AM 57.2 °F 48.2 °F 72% 29.83 in 6.2 mi South 13.8 mph - N/A   Scattered Clouds
3:20 AM 59.0 °F 50.0 °F 72% 29.83 in 6.2 mi South 13.8 mph - N/A   Scattered Clouds
3:50 AM 59.0 °F 50.0 °F 72% 29.83 in 6.2 mi South 13.8 mph 25.3 mph N/A   Scattered Clouds
4:20 AM 59.0 °F 50.0 °F 72% 29.83 in 6.2 mi South 13.8 mph - N/A   Scattered Clouds
5:20 AM 57.2 °F 50.0 °F 77% 29.83 in 6.2 mi South 12.7 mph - N/A   Scattered Clouds
5:50 AM 57.2 °F 50.0 °F 77% 29.83 in 6.2 mi South 12.7 mph - N/A   Scattered Clouds
6:20 AM 57.2 °F 50.0 °F 77% 29.80 in 6.2 mi South 12.7 mph - N/A   Scattered Clouds
6:50 AM 57.2 °F 51.8 °F 82% 29.80 in 5.0 mi South 11.5 mph 23.0 mph N/A Rain Light Rain
7:20 AM 51.8 °F 48.2 °F 88% 29.86 in 3.1 mi WSW 18.4 mph 31.1 mph N/A Rain , Thunderstorm Thunderstorms and Rain
7:50 AM 53.6 °F 48.2 °F 82% 29.86 in 3.7 mi SW 13.8 mph - N/A Rain Light Rain
8:20 AM 53.6 °F 50.0 °F 88% 29.86 in 5.0 mi SSW 11.5 mph - N/A Rain Light Rain
8:50 AM 55.4 °F 50.0 °F 82% 29.86 in 5.0 mi SSW 11.5 mph - N/A Rain Light Rain
9:20 AM 55.4 °F 51.8 °F 88% 29.86 in 6.2 mi SSW 11.5 mph - N/A   Light Drizzle
9:50 AM 55.4 °F 51.8 °F 88% 29.86 in 6.2 mi South 11.5 mph - N/A   Mostly Cloudy
10:20 AM 55.4 °F 50.0 °F 82% 29.86 in 6.2 mi South 9.2 mph - N/A   Mostly Cloudy
10:50 AM 57.2 °F 51.8 °F 82% 29.86 in 6.2 mi South 9.2 mph - N/A   Mostly Cloudy
11:50 AM 57.2 °F 50.0 °F 77% 29.86 in 6.2 mi SSW 9.2 mph - N/A   Mostly Cloudy
12:20 PM 57.2 °F 50.0 °F 77% 29.86 in 6.2 mi SSW 10.4 mph - N/A   Mostly Cloudy
12:50 PM 57.2 °F 50.0 °F 77% 29.83 in 6.2 mi SSW 9.2 mph - N/A   Mostly Cloudy
1:20 PM 59.0 °F 48.2 °F 67% 29.83 in 6.2 mi SSW 10.4 mph - N/A   Mostly Cloudy
1:50 PM 57.2 °F 50.0 °F 77% 29.83 in 5.0 mi SSW 12.7 mph - N/A Rain Light Rain
2:20 PM 53.6 °F 48.2 °F 82% 29.83 in 6.2 mi SW 15.0 mph - N/A Rain Light Rain
2:50 PM 55.4 °F 48.2 °F 77% 29.86 in 6.2 mi SW 16.1 mph - N/A Rain Light Rain
3:20 PM 53.6 °F 48.2 °F 82% 29.86 in 6.2 mi SSW 6.9 mph - N/A   Mostly Cloudy
3:50 PM 55.4 °F 50.0 °F 82% 29.86 in 6.2 mi SSW 10.4 mph - N/A   Mostly Cloudy
4:20 PM 55.4 °F 48.2 °F 77% 29.86 in 6.2 mi SSW 8.1 mph - N/A   Mostly Cloudy
4:50 PM 55.4 °F 48.2 °F 77% 29.89 in 6.2 mi SW 13.8 mph 28.8 mph N/A   Mostly Cloudy
5:20 PM 55.4 °F 46.4 °F 72% 29.89 in 6.2 mi SW 10.4 mph - N/A   Mostly Cloudy
5:50 PM 53.6 °F 46.4 °F 77% 29.89 in 6.2 mi SSW 6.9 mph - N/A   Mostly Cloudy
6:20 PM 53.6 °F 48.2 °F 82% 29.89 in 6.2 mi SSW 6.9 mph - N/A   Mostly Cloudy
6:50 PM 53.6 °F 46.4 °F 77% 29.89 in 6.2 mi SW 11.5 mph - N/A   Light Drizzle
7:20 PM 53.6 °F 48.2 °F 82% 29.89 in 6.2 mi SW 12.7 mph - N/A Rain Light Rain
7:50 PM 51.8 °F 46.4 °F 82% 29.92 in 6.2 mi SW 6.9 mph - N/A   Scattered Clouds
8:20 PM 51.8 °F 44.6 °F 76% 29.92 in 6.2 mi SW 4.6 mph - N/A   Scattered Clouds
8:50 PM 51.8 °F 46.4 °F 82% 29.92 in 6.2 mi WSW 8.1 mph - N/A   Light Drizzle
9:20 PM 51.8 °F 46.4 °F 82% 29.92 in 6.2 mi SW 5.8 mph - N/A   Mostly Cloudy
9:50 PM 51.8 °F 46.4 °F 82% 29.92 in 6.2 mi WSW 6.9 mph - N/A   Light Drizzle
10:20 PM 51.8 °F 46.4 °F 82% 29.95 in 6.2 mi SW 5.8 mph - N/A Rain Light Rain
10:50 PM 50.0 °F 46.4 °F 87% 29.95 in 6.2 mi WNW 8.1 mph - N/A   Mostly Cloudy
11:20 PM 48.2 °F 44.6 °F 87% 29.95 in 6.2 mi WNW 4.6 mph - N/A   Mostly Cloudy
11:50 PM 50.0 °F 46.4 °F 87% 29.95 in 6.2 mi Variable 2.3 mph - N/A Rain Light Rain